Location: Ash Observatory
(39.7321°N, 75.2004°W)
Time: 05:44:42
(UTC-04:00)

Envisat - Pass Details

Date: 30 March 2019
Orbit: 764 x 766 km, 98.2° (Epoch: 24 April)

Event Time Altitude Azimuth Distance (km) Brightness Sun altitude
Rises 19:39:31 0° 168° (SSE) 3,218 6.0 -4.0°
Reaches altitude 10° 19:41:49 10° 170° (S) 2,295 5.3 -4.5°
Maximum altitude 19:46:53 81° 257° (WSW) 780 3.2 -5.4°
Drops below altitude 10° 19:51:59 10° 345° (NNW) 2,310 5.8 -6.4°
Sets 19:54:18 0° 347° (NNW) 3,240 6.6 -6.8°
